Year,Month,Day,Hour,Minute,Value (Times are PST for windspeed in km/hr)
2010,12,28,00,00,4.60
2010,12,28,00,01,5.80
2010,12,28,00,02,6.30
2010,12,28,00,03,5.10
2010,12,28,00,04,5.20
2010,12,28,00,05,7.30
2010,12,28,00,06,6.90
2010,12,28,00,07,3.10
2010,12,28,00,08,3.00
2010,12,28,00,09,5.70
2010,12,28,00,10,5.00
2010,12,28,00,11,6.50
2010,12,28,00,12,4.50
2010,12,28,00,13,2.20
2010,12,28,00,14,9.20
2010,12,28,00,15,9.60
2010,12,28,00,16,5.40
2010,12,28,00,17,3.40
2010,12,28,00,18,2.70
2010,12,28,00,19,6.40
2010,12,28,00,20,6.90
2010,12,28,00,21,6.20
2010,12,28,00,22,3.40
2010,12,28,00,23,0.50
2010,12,28,00,24,2.00
2010,12,28,00,25,3.30
2010,12,28,00,26,5.90
2010,12,28,00,27,5.70
2010,12,28,00,28,1.20
2010,12,28,00,29,3.90
2010,12,28,00,30,6.20
2010,12,28,00,31,6.00
2010,12,28,00,32,6.00
2010,12,28,00,33,7.50
2010,12,28,00,34,5.10
2010,12,28,00,35,6.40
2010,12,28,00,36,4.50
2010,12,28,00,37,3.50
2010,12,28,00,38,2.60
2010,12,28,00,39,1.70
2010,12,28,00,40,1.00
2010,12,28,00,41,2.90
2010,12,28,00,42,2.30
2010,12,28,00,43,2.40
2010,12,28,00,44,1.70
2010,12,28,00,45,2.70
2010,12,28,00,46,2.30
2010,12,28,00,47,2.50
2010,12,28,00,48,2.70
2010,12,28,00,49,3.80
2010,12,28,00,50,4.50
2010,12,28,00,51,5.70
2010,12,28,00,52,3.90
2010,12,28,00,53,3.60
2010,12,28,00,54,0.20
2010,12,28,00,55,1.20
2010,12,28,00,56,3.90
2010,12,28,00,57,3.90
2010,12,28,00,58,1.30
2010,12,28,00,59,2.00
2010,12,28,01,00,3.50
2010,12,28,01,01,4.40
2010,12,28,01,02,2.70
2010,12,28,01,03,7.50
2010,12,28,01,04,5.10
2010,12,28,01,05,2.30
2010,12,28,01,06,0.20
2010,12,28,01,07,1.00
2010,12,28,01,08,4.60
2010,12,28,01,09,2.60
2010,12,28,01,10,2.90
2010,12,28,01,11,1.00
2010,12,28,01,12,2.70
2010,12,28,01,13,3.50
2010,12,28,01,14,3.40
2010,12,28,01,15,5.20
2010,12,28,01,16,2.30
2010,12,28,01,17,4.30
2010,12,28,01,18,2.20
2010,12,28,01,19,0.00
2010,12,28,01,20,1.40
2010,12,28,01,21,1.10
2010,12,28,01,22,5.00
2010,12,28,01,23,4.20
2010,12,28,01,24,3.00
2010,12,28,01,25,2.60
2010,12,28,01,26,6.10
2010,12,28,01,27,4.70
2010,12,28,01,28,1.30
2010,12,28,01,29,1.90
2010,12,28,01,30,3.50
2010,12,28,01,31,2.80
2010,12,28,01,32,3.10
2010,12,28,01,33,2.30
2010,12,28,01,34,4.70
2010,12,28,01,35,6.00
2010,12,28,01,36,4.90
2010,12,28,01,37,7.10
2010,12,28,01,38,6.10
2010,12,28,01,39,3.80
2010,12,28,01,40,6.90
2010,12,28,01,41,6.30
2010,12,28,01,42,8.00
2010,12,28,01,43,5.20
2010,12,28,01,44,5.60
2010,12,28,01,45,7.00
2010,12,28,01,46,5.10
2010,12,28,01,47,8.40
2010,12,28,01,48,9.30
2010,12,28,01,49,6.50
2010,12,28,01,50,6.80
2010,12,28,01,51,8.20
2010,12,28,01,52,6.00
2010,12,28,01,53,5.40
2010,12,28,01,54,7.80
2010,12,28,01,55,5.30
2010,12,28,01,56,3.80
2010,12,28,01,57,5.80
2010,12,28,01,58,9.80
2010,12,28,01,59,8.00
2010,12,28,02,00,7.40
2010,12,28,02,01,9.20
2010,12,28,02,02,9.50
2010,12,28,02,03,10.00
2010,12,28,02,04,8.60
2010,12,28,02,05,8.30
2010,12,28,02,06,6.90
2010,12,28,02,07,9.20
2010,12,28,02,08,11.60
2010,12,28,02,09,10.90
2010,12,28,02,10,10.10
2010,12,28,02,11,10.80
2010,12,28,02,12,9.30
2010,12,28,02,13,9.90
2010,12,28,02,14,8.10
2010,12,28,02,15,8.10
2010,12,28,02,16,5.70
2010,12,28,02,17,7.10
2010,12,28,02,18,8.40
2010,12,28,02,19,7.70
2010,12,28,02,20,4.40
2010,12,28,02,21,5.60
2010,12,28,02,22,5.50
2010,12,28,02,23,4.20
2010,12,28,02,24,9.30
2010,12,28,02,25,10.20
2010,12,28,02,26,10.70
2010,12,28,02,27,6.40
2010,12,28,02,28,6.10
2010,12,28,02,29,6.70
2010,12,28,02,30,3.90
2010,12,28,02,31,2.80
2010,12,28,02,32,5.80
2010,12,28,02,33,1.70
2010,12,28,02,34,4.70
2010,12,28,02,35,7.70
2010,12,28,02,36,7.20
2010,12,28,02,37,9.70
2010,12,28,02,38,5.90
2010,12,28,02,39,6.30
2010,12,28,02,40,9.70
2010,12,28,02,41,8.80
2010,12,28,02,42,6.00
2010,12,28,02,43,5.50
2010,12,28,02,44,5.90
2010,12,28,02,45,5.90
2010,12,28,02,46,7.00
2010,12,28,02,47,8.80
2010,12,28,02,48,7.30
2010,12,28,02,49,8.10
2010,12,28,02,50,5.00
2010,12,28,02,51,6.20
2010,12,28,02,52,6.80
2010,12,28,02,53,8.30
2010,12,28,02,54,8.10
2010,12,28,02,55,7.20
2010,12,28,02,56,7.80
2010,12,28,02,57,5.60
2010,12,28,02,58,6.50
2010,12,28,02,59,6.70
2010,12,28,03,00,6.60
2010,12,28,03,01,4.00
2010,12,28,03,02,3.30
2010,12,28,03,03,5.70
2010,12,28,03,04,5.40
2010,12,28,03,05,4.00
2010,12,28,03,06,3.00
2010,12,28,03,07,7.20
2010,12,28,03,08,5.40
2010,12,28,03,09,1.60
2010,12,28,03,10,3.50
2010,12,28,03,11,4.10
2010,12,28,03,12,3.10
2010,12,28,03,13,3.10
2010,12,28,03,14,4.80
2010,12,28,03,15,4.80
2010,12,28,03,16,5.20
2010,12,28,03,17,3.50
2010,12,28,03,18,7.20
2010,12,28,03,19,5.30
2010,12,28,03,20,2.60
2010,12,28,03,21,4.10
2010,12,28,03,22,4.70
2010,12,28,03,23,3.60
2010,12,28,03,24,0.70
2010,12,28,03,25,3.10
2010,12,28,03,26,4.70
2010,12,28,03,27,6.20
2010,12,28,03,28,6.30
2010,12,28,03,29,6.60
2010,12,28,03,30,5.40
2010,12,28,03,31,9.10
2010,12,28,03,32,5.20
2010,12,28,03,33,1.50
2010,12,28,03,34,4.90
2010,12,28,03,35,6.60
2010,12,28,03,36,3.70
2010,12,28,03,37,3.10
2010,12,28,03,38,1.20
2010,12,28,03,39,2.30
2010,12,28,03,40,4.20
2010,12,28,03,41,4.30
2010,12,28,03,42,2.40
2010,12,28,03,43,4.00
2010,12,28,03,44,8.00
2010,12,28,03,45,5.70
2010,12,28,03,46,5.20
2010,12,28,03,47,4.50
2010,12,28,03,48,1.70
2010,12,28,03,49,0.60
2010,12,28,03,50,0.60
2010,12,28,03,51,2.00
2010,12,28,03,52,0.30
2010,12,28,03,53,0.00
2010,12,28,03,54,0.20
2010,12,28,03,55,3.00
2010,12,28,03,56,4.90
2010,12,28,03,57,4.60
2010,12,28,03,58,1.40
2010,12,28,03,59,0.20
2010,12,28,04,00,0.50
2010,12,28,04,01,0.10
2010,12,28,04,02,0.00
2010,12,28,04,03,0.40
2010,12,28,04,04,1.50
2010,12,28,04,05,0.00
2010,12,28,04,06,3.50
2010,12,28,04,07,6.20
2010,12,28,04,08,2.80
2010,12,28,04,09,0.00
2010,12,28,04,10,1.50
2010,12,28,04,11,0.60
2010,12,28,04,12,2.00
2010,12,28,04,13,0.40
2010,12,28,04,14,0.00
2010,12,28,04,15,0.00
2010,12,28,04,16,0.00
2010,12,28,04,17,0.00
2010,12,28,04,18,0.00
2010,12,28,04,19,1.10
2010,12,28,04,20,2.70
2010,12,28,04,21,2.40
2010,12,28,04,22,2.10
2010,12,28,04,23,1.90
2010,12,28,04,24,0.30
2010,12,28,04,25,0.80
2010,12,28,04,26,0.60
2010,12,28,04,27,4.80
2010,12,28,04,28,3.50
2010,12,28,04,29,2.30
2010,12,28,04,30,2.20
2010,12,28,04,31,2.70
2010,12,28,04,32,2.20
2010,12,28,04,33,2.00
2010,12,28,04,34,2.20
2010,12,28,04,35,1.20
2010,12,28,04,36,0.20
2010,12,28,04,37,0.00
2010,12,28,04,38,0.90
2010,12,28,04,39,0.00
2010,12,28,04,40,0.20
2010,12,28,04,41,0.00
2010,12,28,04,42,0.00
2010,12,28,04,43,0.60
2010,12,28,04,44,1.20
2010,12,28,04,45,2.70
2010,12,28,04,46,1.10
2010,12,28,04,47,1.40
2010,12,28,04,48,2.00
2010,12,28,04,49,2.00
2010,12,28,04,50,3.10
2010,12,28,04,51,3.50
2010,12,28,04,52,2.80
2010,12,28,04,53,2.80
2010,12,28,04,54,2.30
2010,12,28,04,55,2.30
2010,12,28,04,56,2.30
2010,12,28,04,57,2.20
2010,12,28,04,58,1.80
2010,12,28,04,59,2.90
2010,12,28,05,00,2.80
2010,12,28,05,01,2.70
2010,12,28,05,02,4.20
2010,12,28,05,03,2.60
2010,12,28,05,04,2.90
2010,12,28,05,05,2.60
2010,12,28,05,06,3.10
2010,12,28,05,07,1.60
2010,12,28,05,08,1.10
2010,12,28,05,09,2.60
2010,12,28,05,10,2.20
2010,12,28,05,11,3.10
2010,12,28,05,12,3.10
2010,12,28,05,13,2.20
2010,12,28,05,14,0.60
2010,12,28,05,15,2.60
2010,12,28,05,16,2.40
2010,12,28,05,17,2.80
2010,12,28,05,18,2.60
2010,12,28,05,19,2.90
2010,12,28,05,20,2.40
2010,12,28,05,21,1.90
2010,12,28,05,22,1.40
2010,12,28,05,23,2.50
2010,12,28,05,24,1.80
2010,12,28,05,25,1.80
2010,12,28,05,26,2.60
2010,12,28,05,27,2.80
2010,12,28,05,28,2.70
2010,12,28,05,29,3.50
2010,12,28,05,30,2.50
2010,12,28,05,31,2.40
2010,12,28,05,32,4.40
2010,12,28,05,33,2.80
2010,12,28,05,34,3.00
2010,12,28,05,35,1.70
2010,12,28,05,36,2.90
2010,12,28,05,37,3.00
2010,12,28,05,38,1.70
2010,12,28,05,39,2.40
2010,12,28,05,40,1.80
2010,12,28,05,41,2.50
2010,12,28,05,42,2.30
2010,12,28,05,43,2.50
2010,12,28,05,44,2.80
2010,12,28,05,45,2.70
2010,12,28,05,46,2.50
2010,12,28,05,47,1.00
2010,12,28,05,48,3.10
2010,12,28,05,49,3.30
2010,12,28,05,50,2.50
2010,12,28,05,51,1.80
2010,12,28,05,52,0.30
2010,12,28,05,53,1.80
2010,12,28,05,54,1.90
2010,12,28,05,55,2.50
2010,12,28,05,56,2.90
2010,12,28,05,57,3.50
2010,12,28,05,58,2.40
2010,12,28,05,59,2.30
2010,12,28,06,00,2.40
2010,12,28,06,01,1.50
2010,12,28,06,02,2.50
2010,12,28,06,03,3.90
2010,12,28,06,04,3.10
2010,12,28,06,05,2.80
2010,12,28,06,06,3.70
2010,12,28,06,07,2.20
2010,12,28,06,08,1.80
2010,12,28,06,09,2.90
2010,12,28,06,10,2.70
2010,12,28,06,11,1.50
2010,12,28,06,12,2.30
2010,12,28,06,13,2.50
2010,12,28,06,14,2.90
2010,12,28,06,15,2.20
2010,12,28,06,16,1.70
2010,12,28,06,17,2.30
2010,12,28,06,18,3.30
2010,12,28,06,19,2.50
2010,12,28,06,20,2.10
2010,12,28,06,21,2.90
2010,12,28,06,22,3.50
2010,12,28,06,23,3.50
2010,12,28,06,24,2.50
2010,12,28,06,25,1.90
2010,12,28,06,26,2.70
2010,12,28,06,27,3.20
2010,12,28,06,28,2.80
2010,12,28,06,29,2.90
2010,12,28,06,30,3.90
2010,12,28,06,31,4.20
2010,12,28,06,32,3.80
2010,12,28,06,33,3.30
2010,12,28,06,34,3.50
2010,12,28,06,35,4.20
2010,12,28,06,36,3.70
2010,12,28,06,37,3.50
2010,12,28,06,38,2.70
2010,12,28,06,39,3.40
2010,12,28,06,40,3.40
2010,12,28,06,41,3.90
2010,12,28,06,42,1.50
2010,12,28,06,43,2.10
2010,12,28,06,44,3.20
2010,12,28,06,45,1.30
2010,12,28,06,46,0.30
2010,12,28,06,47,5.60
2010,12,28,06,48,4.60
2010,12,28,06,49,1.50
2010,12,28,06,50,1.20
2010,12,28,06,51,2.60
2010,12,28,06,52,0.40
2010,12,28,06,53,4.10
2010,12,28,06,54,1.60
2010,12,28,06,55,4.10
2010,12,28,06,56,1.70
2010,12,28,06,57,0.00
2010,12,28,06,58,0.90
2010,12,28,06,59,6.00
2010,12,28,07,00,3.90
2010,12,28,07,01,0.80
2010,12,28,07,02,1.50
2010,12,28,07,03,3.10
2010,12,28,07,04,1.40
2010,12,28,07,05,3.10
2010,12,28,07,06,0.50
2010,12,28,07,07,3.90
2010,12,28,07,08,2.20
2010,12,28,07,09,3.30
2010,12,28,07,10,0.10
2010,12,28,07,11,4.30
2010,12,28,07,12,4.70
2010,12,28,07,13,2.30
2010,12,28,07,14,5.90
2010,12,28,07,15,1.50
2010,12,28,07,16,4.00
2010,12,28,07,17,4.50
2010,12,28,07,18,5.60
2010,12,28,07,19,5.80
2010,12,28,07,20,3.50
2010,12,28,07,21,1.40
2010,12,28,07,22,4.20
2010,12,28,07,23,3.60
2010,12,28,07,24,2.40
2010,12,28,07,25,2.80
2010,12,28,07,26,2.50
2010,12,28,07,27,1.50
2010,12,28,07,28,1.40
2010,12,28,07,29,3.50
2010,12,28,07,30,1.80
2010,12,28,07,31,0.20
2010,12,28,07,32,0.20
2010,12,28,07,33,4.40
2010,12,28,07,34,2.60
2010,12,28,07,35,0.00
2010,12,28,07,36,0.00
2010,12,28,07,37,0.40
2010,12,28,07,38,0.00
2010,12,28,07,39,1.80
2010,12,28,07,40,0.90
2010,12,28,07,41,0.00
2010,12,28,07,42,0.80
2010,12,28,07,43,0.60
2010,12,28,07,44,0.30
2010,12,28,07,45,4.00
2010,12,28,07,46,0.90
2010,12,28,07,47,2.70
2010,12,28,07,48,2.70
2010,12,28,07,49,3.30
2010,12,28,07,50,0.70
2010,12,28,07,51,0.00
2010,12,28,07,52,0.10
2010,12,28,07,53,0.30
2010,12,28,07,54,0.90
2010,12,28,07,55,0.20
2010,12,28,07,56,4.70
2010,12,28,07,57,0.50
2010,12,28,07,58,2.20
2010,12,28,07,59,2.10
2010,12,28,08,00,0.10
2010,12,28,08,01,0.00
2010,12,28,08,02,0.10
2010,12,28,08,03,0.10
2010,12,28,08,04,0.90
2010,12,28,08,05,0.00
2010,12,28,08,06,0.00
2010,12,28,08,07,1.50
2010,12,28,08,08,2.30
2010,12,28,08,09,2.20
2010,12,28,08,10,0.20
2010,12,28,08,11,0.20
2010,12,28,08,12,2.10
2010,12,28,08,13,1.90
2010,12,28,08,14,0.20
2010,12,28,08,15,0.10
2010,12,28,08,16,0.00
2010,12,28,08,17,0.00
2010,12,28,08,18,0.60
2010,12,28,08,19,0.30
2010,12,28,08,20,1.40
2010,12,28,08,21,4.00
2010,12,28,08,22,5.60
2010,12,28,08,23,3.40
2010,12,28,08,24,3.30
2010,12,28,08,25,5.30
2010,12,28,08,26,0.70
2010,12,28,08,27,0.00
2010,12,28,08,28,0.20
2010,12,28,08,29,0.00
2010,12,28,08,30,0.40
2010,12,28,08,31,3.00
2010,12,28,08,32,2.10
2010,12,28,08,33,0.00
2010,12,28,08,34,0.00
2010,12,28,08,35,0.00
2010,12,28,08,36,0.30
2010,12,28,08,37,0.10
2010,12,28,08,38,0.00
2010,12,28,08,39,3.10
2010,12,28,08,40,0.70
2010,12,28,08,41,0.00
2010,12,28,08,42,0.00
2010,12,28,08,43,0.00
2010,12,28,08,44,0.60
2010,12,28,08,45,3.10
2010,12,28,08,46,3.90
2010,12,28,08,47,2.50
2010,12,28,08,48,1.90
2010,12,28,08,49,1.10
2010,12,28,08,50,2.60
2010,12,28,08,51,2.70
2010,12,28,08,52,0.00
2010,12,28,08,53,1.30
2010,12,28,08,54,2.30
2010,12,28,08,55,1.90
2010,12,28,08,56,1.50
2010,12,28,08,57,0.00
2010,12,28,08,58,0.00
2010,12,28,08,59,0.00
2010,12,28,09,00,0.10
2010,12,28,09,01,1.80
2010,12,28,09,02,0.40
2010,12,28,09,03,4.00
2010,12,28,09,04,2.10
2010,12,28,09,05,0.90
2010,12,28,09,06,0.00
2010,12,28,09,07,0.00
2010,12,28,09,08,0.00
2010,12,28,09,09,0.00
2010,12,28,09,10,0.00
2010,12,28,09,11,0.00
2010,12,28,09,12,0.00
2010,12,28,09,13,0.00
2010,12,28,09,14,0.00
2010,12,28,09,15,0.90
2010,12,28,09,16,1.60
2010,12,28,09,17,0.40
2010,12,28,09,18,0.10
2010,12,28,09,19,0.20
2010,12,28,09,20,0.00
2010,12,28,09,21,0.00
2010,12,28,09,22,0.00
2010,12,28,09,23,0.00
2010,12,28,09,24,0.00
2010,12,28,09,25,0.00
2010,12,28,09,26,1.10
2010,12,28,09,27,0.00
2010,12,28,09,28,0.00
2010,12,28,09,29,2.50
2010,12,28,09,30,3.40
2010,12,28,09,31,1.00
2010,12,28,09,32,0.30
2010,12,28,09,33,0.10
2010,12,28,09,34,0.00
2010,12,28,09,35,0.00
2010,12,28,09,36,0.10
2010,12,28,09,37,0.00
2010,12,28,09,38,1.00
2010,12,28,09,39,3.10
2010,12,28,09,40,4.10
2010,12,28,09,41,1.40
2010,12,28,09,42,0.30
2010,12,28,09,43,0.60
2010,12,28,09,44,2.60
2010,12,28,09,45,0.30
2010,12,28,09,46,0.00
2010,12,28,09,47,0.30
2010,12,28,09,48,0.30
2010,12,28,09,49,4.10
2010,12,28,09,50,0.40
2010,12,28,09,51,0.00
2010,12,28,09,52,0.00
2010,12,28,09,53,0.00
2010,12,28,09,54,0.10
2010,12,28,09,55,0.70
2010,12,28,09,56,2.00
2010,12,28,09,57,0.00
2010,12,28,09,58,0.40
2010,12,28,09,59,0.10
2010,12,28,10,00,0.00
2010,12,28,10,01,1.60
2010,12,28,10,02,0.20
2010,12,28,10,03,0.00
2010,12,28,10,04,0.20
2010,12,28,10,05,2.00
2010,12,28,10,06,0.40
2010,12,28,10,07,0.80
2010,12,28,10,08,0.80
2010,12,28,10,09,0.00
2010,12,28,10,10,1.40
2010,12,28,10,11,0.20
2010,12,28,10,12,0.20
2010,12,28,10,13,0.90
2010,12,28,10,14,0.30
2010,12,28,10,15,0.00
2010,12,28,10,16,0.20
2010,12,28,10,17,0.00
2010,12,28,10,18,1.40
2010,12,28,10,19,2.60
2010,12,28,10,20,0.40
2010,12,28,10,21,2.40
2010,12,28,10,22,3.80
2010,12,28,10,23,2.60
2010,12,28,10,24,1.30
2010,12,28,10,25,0.60
2010,12,28,10,26,0.30
2010,12,28,10,27,0.70
2010,12,28,10,28,0.10
2010,12,28,10,29,0.00
2010,12,28,10,30,0.80
2010,12,28,10,31,0.00
2010,12,28,10,32,0.50
2010,12,28,10,33,1.20
2010,12,28,10,34,2.80
2010,12,28,10,35,1.30
2010,12,28,10,36,0.80
2010,12,28,10,37,0.80
2010,12,28,10,38,1.50
2010,12,28,10,39,3.60
2010,12,28,10,40,2.30
2010,12,28,10,41,0.30
2010,12,28,10,42,2.60
2010,12,28,10,43,2.40
2010,12,28,10,44,2.30
2010,12,28,10,45,2.50
2010,12,28,10,46,0.80
2010,12,28,10,47,0.40
2010,12,28,10,48,4.90
2010,12,28,10,49,1.50
2010,12,28,10,50,0.60
2010,12,28,10,51,0.20
2010,12,28,10,52,0.90
2010,12,28,10,53,2.10
2010,12,28,10,54,3.60
2010,12,28,10,55,2.00
2010,12,28,10,56,1.40
2010,12,28,10,57,0.00
2010,12,28,10,58,0.00
2010,12,28,10,59,0.00
2010,12,28,11,00,0.00
2010,12,28,11,01,1.60
2010,12,28,11,02,0.80
2010,12,28,11,03,4.80
2010,12,28,11,04,1.40
2010,12,28,11,05,1.30
2010,12,28,11,06,0.10
2010,12,28,11,07,0.00
2010,12,28,11,08,1.50
2010,12,28,11,09,4.20
2010,12,28,11,10,1.80
2010,12,28,11,11,1.30
2010,12,28,11,12,0.00
2010,12,28,11,13,0.60
2010,12,28,11,14,3.60
2010,12,28,11,15,1.60
2010,12,28,11,16,2.60
2010,12,28,11,17,3.30
2010,12,28,11,18,0.70
2010,12,28,11,19,0.00
2010,12,28,11,20,1.20
2010,12,28,11,21,1.30
2010,12,28,11,22,0.90
2010,12,28,11,23,0.70
2010,12,28,11,24,0.10
2010,12,28,11,25,0.70
2010,12,28,11,26,0.00
2010,12,28,11,27,0.00
2010,12,28,11,28,0.20
2010,12,28,11,29,0.00
2010,12,28,11,30,0.00
2010,12,28,11,31,1.10
2010,12,28,11,32,3.00
2010,12,28,11,33,1.00
2010,12,28,11,34,0.00
2010,12,28,11,35,0.00
2010,12,28,11,36,0.00
2010,12,28,11,37,2.50
2010,12,28,11,38,1.30
2010,12,28,11,39,2.40
2010,12,28,11,40,0.20
2010,12,28,11,41,1.30
2010,12,28,11,42,3.00
2010,12,28,11,43,5.50
2010,12,28,11,44,1.30
2010,12,28,11,45,3.50
2010,12,28,11,46,3.10
2010,12,28,11,47,1.70
2010,12,28,11,48,0.20
2010,12,28,11,49,3.90
2010,12,28,11,50,0.20
2010,12,28,11,51,0.30
2010,12,28,11,52,0.20
2010,12,28,11,53,0.00
2010,12,28,11,54,6.00
2010,12,28,11,55,3.50
2010,12,28,11,56,2.70
2010,12,28,11,57,1.50
2010,12,28,11,58,3.60
2010,12,28,11,59,4.60
2010,12,28,12,00,4.60
2010,12,28,12,01,1.40
2010,12,28,12,02,5.10
2010,12,28,12,03,5.00
2010,12,28,12,04,3.80
2010,12,28,12,05,5.40
2010,12,28,12,06,4.10
2010,12,28,12,07,4.30
2010,12,28,12,08,1.20
2010,12,28,12,09,0.00
2010,12,28,12,10,0.80
2010,12,28,12,11,0.10
2010,12,28,12,12,0.40
2010,12,28,12,13,1.20
2010,12,28,12,14,3.30
2010,12,28,12,15,0.70
2010,12,28,12,16,4.30
2010,12,28,12,17,5.40
2010,12,28,12,18,5.20
2010,12,28,12,19,3.00
2010,12,28,12,20,1.40
2010,12,28,12,21,2.70
2010,12,28,12,22,3.10
2010,12,28,12,23,3.80
2010,12,28,12,24,3.60
2010,12,28,12,25,0.40
2010,12,28,12,26,3.90
2010,12,28,12,27,5.60
2010,12,28,12,28,1.80
2010,12,28,12,29,3.00
2010,12,28,12,30,3.60
2010,12,28,12,31,3.20
2010,12,28,12,32,4.20
2010,12,28,12,33,6.60
2010,12,28,12,34,4.20
2010,12,28,12,35,2.20
2010,12,28,12,36,3.30
2010,12,28,12,37,2.20
2010,12,28,12,38,2.50
2010,12,28,12,39,5.20
2010,12,28,12,40,4.80
2010,12,28,12,41,5.50
2010,12,28,12,42,6.00
2010,12,28,12,43,7.10
2010,12,28,12,44,4.10
2010,12,28,12,45,5.70
2010,12,28,12,46,6.40
2010,12,28,12,47,4.60
2010,12,28,12,48,3.10
2010,12,28,12,49,5.80
2010,12,28,12,50,5.50
2010,12,28,12,51,3.10
2010,12,28,12,52,7.90
2010,12,28,12,53,6.10
2010,12,28,12,54,7.00
2010,12,28,12,55,6.20
2010,12,28,12,56,3.50
2010,12,28,12,57,5.80
2010,12,28,12,58,5.30
2010,12,28,12,59,3.80
2010,12,28,13,00,5.90
2010,12,28,13,01,3.80
2010,12,28,13,02,4.60
2010,12,28,13,03,2.90
2010,12,28,13,04,8.20
2010,12,28,13,05,6.90
2010,12,28,13,06,2.10
2010,12,28,13,07,4.70
2010,12,28,13,08,2.30
2010,12,28,13,09,2.70
2010,12,28,13,10,6.90
2010,12,28,13,11,6.90
2010,12,28,13,12,5.30
2010,12,28,13,13,6.40
2010,12,28,13,14,4.70
2010,12,28,13,15,2.70
2010,12,28,13,16,3.60
2010,12,28,13,17,6.80
2010,12,28,13,18,7.50
2010,12,28,13,19,4.20
2010,12,28,13,20,2.40
2010,12,28,13,21,2.10
2010,12,28,13,22,6.30
2010,12,28,13,23,4.20
2010,12,28,13,24,1.80
2010,12,28,13,25,6.10
2010,12,28,13,26,6.60
2010,12,28,13,27,5.40
2010,12,28,13,28,2.60
2010,12,28,13,29,0.30
2010,12,28,13,30,0.80
2010,12,28,13,31,4.00
2010,12,28,13,32,2.20
2010,12,28,13,33,6.00
2010,12,28,13,34,6.40
2010,12,28,13,35,8.50
2010,12,28,13,36,2.90
2010,12,28,13,37,4.80
2010,12,28,13,38,4.30
2010,12,28,13,39,4.60
2010,12,28,13,40,4.50
2010,12,28,13,41,5.80
2010,12,28,13,42,3.70
2010,12,28,13,43,3.00
2010,12,28,13,44,3.90
2010,12,28,13,45,7.10
2010,12,28,13,46,5.80
2010,12,28,13,47,2.30
2010,12,28,13,48,6.70
2010,12,28,13,49,5.00
2010,12,28,13,50,5.50
2010,12,28,13,51,8.30
2010,12,28,13,52,3.70
2010,12,28,13,53,4.90
2010,12,28,13,54,3.60
2010,12,28,13,55,4.10
2010,12,28,13,56,7.10
2010,12,28,13,57,3.80
2010,12,28,13,58,7.50
2010,12,28,13,59,7.10
2010,12,28,14,00,5.00
2010,12,28,14,01,3.80
2010,12,28,14,02,5.40
2010,12,28,14,03,4.60
2010,12,28,14,04,2.80
2010,12,28,14,05,5.50
2010,12,28,14,06,4.60
2010,12,28,14,07,6.90
2010,12,28,14,08,5.80
2010,12,28,14,09,7.20
2010,12,28,14,10,2.60
2010,12,28,14,11,4.10
2010,12,28,14,12,4.10
2010,12,28,14,13,4.50
2010,12,28,14,14,8.30
2010,12,28,14,15,5.30
2010,12,28,14,16,6.60
2010,12,28,14,17,7.70
2010,12,28,14,18,2.00
2010,12,28,14,19,5.30
2010,12,28,14,20,8.00
2010,12,28,14,21,5.00
2010,12,28,14,22,3.60
2010,12,28,14,23,5.40
2010,12,28,14,24,6.40
2010,12,28,14,25,1.90
2010,12,28,14,26,0.90
2010,12,28,14,27,5.70
2010,12,28,14,28,2.70
2010,12,28,14,29,3.50
2010,12,28,14,30,6.10
2010,12,28,14,31,4.90
2010,12,28,14,32,5.40
2010,12,28,14,33,5.50
2010,12,28,14,34,1.50
2010,12,28,14,35,2.00
2010,12,28,14,36,0.80
2010,12,28,14,37,3.10
2010,12,28,14,38,4.10
2010,12,28,14,39,4.70
2010,12,28,14,40,2.30
2010,12,28,14,41,1.70
2010,12,28,14,42,3.10
2010,12,28,14,43,0.80
2010,12,28,14,44,3.40
2010,12,28,14,45,6.90
2010,12,28,14,46,5.60
2010,12,28,14,47,2.50
2010,12,28,14,48,2.40
2010,12,28,14,49,6.50
2010,12,28,14,50,5.90
2010,12,28,14,51,3.60
2010,12,28,14,52,2.90
2010,12,28,14,53,2.90
2010,12,28,14,54,5.00
2010,12,28,14,55,1.50
2010,12,28,14,56,2.70
2010,12,28,14,57,4.10
2010,12,28,14,58,3.80
2010,12,28,14,59,4.20
2010,12,28,15,00,5.00
2010,12,28,15,01,0.60
2010,12,28,15,02,3.40
2010,12,28,15,03,5.50
2010,12,28,15,04,1.00
2010,12,28,15,05,5.50
2010,12,28,15,06,2.40
2010,12,28,15,07,1.40
2010,12,28,15,08,1.80
2010,12,28,15,09,1.40
2010,12,28,15,10,2.50
2010,12,28,15,11,6.40
2010,12,28,15,12,8.20
2010,12,28,15,13,4.60
2010,12,28,15,14,2.40
2010,12,28,15,15,3.10
2010,12,28,15,16,4.10
2010,12,28,15,17,6.80
2010,12,28,15,18,6.30
2010,12,28,15,19,5.80
2010,12,28,15,20,3.50
2010,12,28,15,21,9.90
2010,12,28,15,22,3.10
2010,12,28,15,23,0.90
2010,12,28,15,24,2.40
2010,12,28,15,25,1.50
2010,12,28,15,26,1.90
2010,12,28,15,27,6.90
2010,12,28,15,28,4.30
2010,12,28,15,29,3.00
2010,12,28,15,30,2.60
2010,12,28,15,31,4.90
2010,12,28,15,32,4.10
2010,12,28,15,33,4.00
2010,12,28,15,34,1.90
2010,12,28,15,35,0.20
2010,12,28,15,36,4.90
2010,12,28,15,37,5.70
2010,12,28,15,38,6.20
2010,12,28,15,39,2.70
2010,12,28,15,40,2.30
2010,12,28,15,41,2.50
2010,12,28,15,42,1.40
2010,12,28,15,43,4.80
2010,12,28,15,44,4.70
2010,12,28,15,45,7.40
2010,12,28,15,46,1.00
2010,12,28,15,47,1.40
2010,12,28,15,48,4.70
2010,12,28,15,49,2.30
2010,12,28,15,50,1.90
2010,12,28,15,51,3.30
2010,12,28,15,52,2.80
2010,12,28,15,53,4.00
2010,12,28,15,54,0.50
2010,12,28,15,55,0.50
2010,12,28,15,56,1.30
2010,12,28,15,57,0.40
2010,12,28,15,58,2.20
2010,12,28,15,59,2.20
2010,12,28,16,00,1.90
2010,12,28,16,01,4.00
2010,12,28,16,02,6.80
2010,12,28,16,03,4.10
2010,12,28,16,04,5.40
2010,12,28,16,05,4.10
2010,12,28,16,06,0.80
2010,12,28,16,07,2.60
2010,12,28,16,08,4.40
2010,12,28,16,09,0.80
2010,12,28,16,10,1.30
2010,12,28,16,11,2.90
2010,12,28,16,12,2.30
2010,12,28,16,13,2.20
2010,12,28,16,14,2.20
2010,12,28,16,15,4.00
2010,12,28,16,16,2.00
2010,12,28,16,17,5.60
2010,12,28,16,18,4.40
2010,12,28,16,19,4.80
2010,12,28,16,20,4.10
2010,12,28,16,21,3.40
2010,12,28,16,22,0.20
2010,12,28,16,23,0.90
2010,12,28,16,24,4.10
2010,12,28,16,25,5.90
2010,12,28,16,26,5.30
2010,12,28,16,27,3.80
2010,12,28,16,28,4.80
2010,12,28,16,29,4.30
2010,12,28,16,30,4.50
2010,12,28,16,31,7.70
2010,12,28,16,32,2.60
2010,12,28,16,33,1.40
2010,12,28,16,34,6.90
2010,12,28,16,35,6.60
2010,12,28,16,36,5.80
2010,12,28,16,37,4.40
2010,12,28,16,38,7.10
2010,12,28,16,39,3.10
2010,12,28,16,40,3.20
2010,12,28,16,41,5.40
2010,12,28,16,42,9.70
2010,12,28,16,43,7.20
2010,12,28,16,44,6.00
2010,12,28,16,45,5.10
2010,12,28,16,46,1.50
2010,12,28,16,47,2.30
2010,12,28,16,48,6.00
2010,12,28,16,49,3.00
2010,12,28,16,50,3.70
2010,12,28,16,51,6.40
2010,12,28,16,52,5.10
2010,12,28,16,53,2.50
2010,12,28,16,54,3.10
2010,12,28,16,55,4.80
2010,12,28,16,56,2.30
2010,12,28,16,57,3.10
2010,12,28,16,58,6.50
2010,12,28,16,59,1.60
2010,12,28,17,00,2.40
2010,12,28,17,01,7.50
2010,12,28,17,02,6.30
2010,12,28,17,03,0.20
2010,12,28,17,04,0.80
2010,12,28,17,05,3.90
2010,12,28,17,06,2.90
2010,12,28,17,07,3.10
2010,12,28,17,08,7.20
2010,12,28,17,09,4.20
2010,12,28,17,10,6.30
2010,12,28,17,11,5.10
2010,12,28,17,12,4.60
2010,12,28,17,13,6.90
2010,12,28,17,14,3.80
2010,12,28,17,15,4.60
2010,12,28,17,16,4.70
2010,12,28,17,17,8.00
2010,12,28,17,18,6.40
2010,12,28,17,19,3.00
2010,12,28,17,20,5.40
2010,12,28,17,21,6.80
2010,12,28,17,22,7.30
2010,12,28,17,23,4.00
2010,12,28,17,24,4.10
2010,12,28,17,25,8.10
2010,12,28,17,26,6.00
2010,12,28,17,27,2.50
2010,12,28,17,28,6.20
2010,12,28,17,29,4.90
2010,12,28,17,30,4.40
2010,12,28,17,31,3.30
2010,12,28,17,32,3.40
2010,12,28,17,33,3.40
2010,12,28,17,34,4.80
2010,12,28,17,35,3.00
2010,12,28,17,36,5.00
2010,12,28,17,37,1.90
2010,12,28,17,38,2.50
2010,12,28,17,39,4.00
2010,12,28,17,40,7.60
2010,12,28,17,41,3.50
2010,12,28,17,42,2.70
2010,12,28,17,43,6.70
2010,12,28,17,44,4.90
2010,12,28,17,45,6.60
2010,12,28,17,46,4.70
2010,12,28,17,47,2.80
2010,12,28,17,48,3.20
2010,12,28,17,49,4.70
2010,12,28,17,50,6.20
2010,12,28,17,51,4.70
2010,12,28,17,52,3.30
2010,12,28,17,53,5.50
2010,12,28,17,54,2.70
2010,12,28,17,55,7.40
2010,12,28,17,56,4.80
2010,12,28,17,57,2.00
2010,12,28,17,58,4.20
2010,12,28,17,59,3.30
2010,12,28,18,00,5.30
2010,12,28,18,01,3.50
2010,12,28,18,02,4.50
2010,12,28,18,03,9.40
2010,12,28,18,04,2.20
2010,12,28,18,05,3.50
2010,12,28,18,06,2.90